Regional Weather Roundup
Issued by NWS New Orleans/Baton Rouge, LA

Home | Current Version | Previous Version | Graphics & Text | Print | Product List | Glossary On
Versions: 1 2 3 4 5 6 7 8 9 10 11 12 13 14 15 16 17 18 19 20 21 22 23 24 25 26 27 28 29 30 31 32 33 34 35 36 37 38 39 40 41 42 43 44 45 46 47 48 49 50
671
ASUS44 KLIX 210310
RWRLIX
NEW ORLEANS REGIONAL WEATHER ROUNDUP
NATIONAL WEATHER SERVICE NEW ORLEANS LA
900 PM CST SAT DEC 20 2014

NOTE: "FAIR" INDICATES FEW OR NO CLOUDS BELOW 12,000 FEET WITH NO
      SIGNIFICANT WEATHER AND/OR OBSTRUCTIONS TO VISIBILITY.
      SKY/WX - SKY CONDITION AND SIGNIFICANT WEATHER.
      TMP - AIR TEMPERATURE.     DP    - DEWPOINT TEMPERATURE.
      RH  - RELATIVE HUMIDITY.   PRES  - PRESSURE.
      HI  - HEAT INDEX.          WCI   - WIND CHILL INDEX.

*  THESE STATIONS ARE NOT NWS OR FAA STATIONS AND ARE NOT UNDER
   NWS QUALITY CONTROL.

LAZ038-040-048-061>063-065>067-069-210400-
SOUTHEAST LOUISIANA

CITY           SKY/WX    TMP DP  RH WIND       PRES   REMARKS
N.O. AUDUBON     N/A     53  50  87 MISG        N/A
N.O. INTL ARPT CLOUDY    52  47  83 NE12      30.16R
N.O. LAKEFRONT CLOUDY    54  47  77 NE17      30.17R
N.O. DOWNTOWN* CLOUDY    54  45  71 NE6       30.16S
SLIDELL        CLOUDY    53  47  79 N7        30.16R
BATON ROUGE    CLOUDY    45  43  93 CALM      30.18R
BOOTHVILLE     CLOUDY    54  51  90 NE9       30.13S
BELLE CHASSE   CLOUDY    53  47  79 NE8       30.15R
BOGALUSA*        N/A     53  46  77 CALM      30.18R
GALLIANO*      CLOUDY    54  50  86 MISG      30.15S
NEW ROADS*       N/A     46  45  95 CALM      30.19R
GONZALES*      CLOUDY    50  50  99 NE5       30.17R
HAMMOND*       NOT AVBL
HOUMA*         CLOUDY    51  49  93 N9        30.15S
PORT FOURCHON* CLOUDY    54  50  87 NE14      30.17S

$$

MSZ070-080>082-210400-
SOUTHERN MISSISSIPPI

CITY           SKY/WX    TMP DP  RH WIND       PRES   REMARKS
MCCOMB         MOCLDY    47  43  86 CALM      30.17S
GULFPORT       CLOUDY    51  47  86 N13       30.14R
BILOXI         CLOUDY    51  49  90 NE10      30.14R
PASCAGOULA     CLOUDY    51  47  86 NE13      30.14S

$$

COASTAL OBSERVATIONS
LAKE AND NEARSHORE STATIONS

STATION/POSITION TIME  TEMP    WIND        PRES    WAVE
                       AIR SEA DIR/SP/G            HT/PER
                 (UTC) (F)     (DEG/KT/KT) (MB)    (FT/S)
PASCAGOULA       0300   51      30/  9/ 15 1019.8
WAVELAND YACHT   0300   52      30/  9/ 12 1020.0
GRAND ISLE       0300   54 60   40/  9/ 16 1021.1
SOUTHWEST PASS   0300   56                 1019.9
NEW CANAL        0300   53 56   40/ 14/ 15 1021.5
SHELL BEACH      0300   53 57   30/ 14/ 16 1020.9

OFFSHORE STATIONS

STATION/POSITION TIME  TEMP    WIND        PRES    WAVE
                       AIR SEA DIR/SP/G            HT/PER
                 (UTC) (F)     (DEG/KT/KT) (MB)    (FT/S)
64 S DAUPHIN ISL 0300   63 74   40/ 19/ 21 1018.2    6/ 7

$$




USA.gov is the U.S. government's official web portal to all federal, state and local government web resources and services.